STARLINK-11391, 62889

Orbit data source: Space-Track

STARLINK-11391, 62889 is a payload satellite owned by SpaceX/Seattle (US) in LEO that was launched on Tue, 04 Feb 2025 UTC via an FALCON 9 launch vehicle from the Air Force Eastern Test Range (AFETR). Payload-class satellites include a variety of spacecraft equipped with specific instruments for various scientific and technological missions. These include communications satellites like Starlink; space stations such as the ISS; scientific satellites like the Hubble; Earth observation satellites from companies like Planet Labs, Umbra, and HawkEye 360; GPS; miniature CubeSats for education and research; and military/defense satellites.

Loading next visibility...
Identifier
62889, 2025-024L
Orbit
LEO
Country
Flag of USUS
Related business
Manufacturer
SpaceX/Seattle
Mission
Operational Commercial Communications
Bus & Motor
STARLINK V2MD, Unknown motor
Mass
960 kg wet, ~910 kg dry
Launch date (UTC)
2025-02-04 (9 months ago)
Launch vehicle
FALCON 9
Launch site
Air Force Eastern Test Range (AFETR)
Object type
Payload
Rocket body
Debris
Shape & HBR
Box + 2 Pan, 18.1 m
Radar Cross Section
36.964 m², Large (>1 m²)

Expand to show TLE details & history
Last TLE update: 1 day ago

TLE from 1 day ago
0 STARLINK-11391
1 62889U 25024L   25296.25672639  .00197430  00000-0  15013-2 0  9996
2 62889  42.9993 289.7027 0001269 263.6603  96.4120 15.70911724 41857
Epoch: 2025-10-23T06:09Z
TLE epoch observation values (Epoch: 2025-10-23T06:09:41.160Z)
Latitude
-0.00001°
Longitude
165.3626°
Altitude
356.157 km
Speed
7.697 km/s
True Right ascension
19h 18m 48s
True Declination
0° 00' 00"
Sunlit
Object was in daylight at epoch
Visualization orbit readout
Latitude
Unknown
Longitude
Unknown
Altitude
Unknown
Speed
Unknown
Apparent Right ascension
Unknown
Apparent Declination
Unknown
Sunlit
N/A
Visualization observer readout
Local Sidereal Time
08:46:10
Azimuth
Unknown
Elevation
Unknown
Doppler factor
Unknown
Orbital elements
Apogee altitude
359.127 km
Perigee altitude
357.417 km
Semi-major axis
6,736.409 km
Eccentricity
0.00013
Inclination
42.9993°
RAAN
289.7027°
Arg. of periapsis
263.6603°
True anomaly
96.42645°
Mean anomaly
96.412°
Eccentric anomaly
96.41923°
Mean motion
3.92555 °/min
Orbital period
91.71 mins
BSTAR
0.0015013
Loading maneuver chart data...
Computing Atmospheric mass density...
Loading historical data...
Loading historical data...
Loading historical data...
Loading historical data...
Loading historical data...
Loading historical data...
Loading historical data...

Documentation

Showing up to 5 results
|